カタログに戻る

KUIPER-00203

運用中通信LEO
NORAD 67773·PAYLOAD·🇺🇸 United States

打ち上げ Feb 12, 2026 から Guiana Space Centre

Loading…

次のパス (今後24時間)

TLE

最新Source: CelesTrak SupGP

元期: Sep 15, 2026, 01:50 UTC

1 67773C 26030K   26258.07684028  .00006639  00000+0  86891-3 0  2585
2 67773  51.9046 100.7370 0001085 102.5356 126.4942 14.79929437    15

AllMySatでKUIPER-00203をリアルタイム追跡

Download on the App Store